Location: City of Moscow
(46.7306°N, 116.9989°W)
Time: 12:43:01
(UTC+00:00)

ACS3 Solar Sail - Pass Details

Date: 21 February 2026
Orbit: 887 x 973 km, 97.2° (Epoch: 8 March)

Event Time Altitude Azimuth Distance (km) Brightness Sun altitude
Rises 10:55:35 0° 4° (N) 3,512 5.1 -38.4°
Reaches altitude 10° 10:58:13 10° 355° (N) 2,564 4.2 -38.0°
Enters shadow 10:58:27 11° 354° (N) 2,483 4.1 -38.0°
